Location: Newark
(44.4156°N, 12.1972°E)
Time: 01:22:10
(UTC+00:00)

STARLINK-1080 - Pass Details

Date: 04 February 2020
Orbit: 348 x 351 km, 53.0° (Epoch: 17 February)

Event Time Altitude Azimuth Distance (km) Brightness Sun altitude
Rises 17:13:47 0° 290° (WNW) 2,153 7.7 -9.3°
Reaches altitude 10° 17:16:19 10° 267° (W) 1,306 7.1 -9.7°
Maximum altitude 17:18:09 16° 227° (SW) 1,034 6.0 -10.1°
Drops below altitude 10° 17:19:59 10° 188° (S) 1,299 5.8 -10.4°
Sets 17:22:29 0° 164° (SSE) 2,135 6.6 -10.8°
